Flag for U.S.A. Weather past 2 weeks in Flint, Michigan, U.S.A.

Now
82 °F

Partly sunny.


Feels Like: 83 °F
Forecast: 67 / 85 °F
Wind: 6 mph from Southeast

Location: Bishop International Airport

Current Time: Jul 28, 2015 at 9:12:15 PM

Latest Report: Jul 28, 2015 at 8:53 PM


Visibility: 10 mi

Pressure: 29.96 "Hg

Humidity: 53%

Dew point: 63 °F

Location of FlintLocation

Historic Weather in Flint — Graph

°F

Flint temperature yesterday

Maximum temperature yesterday: 90 °F (at 4:53 PM)
Minimum temperature yesterday: 62 °F (at 5:53 AM)
Average temperature yesterday: 77 °F

Past Weeks' High & Low Weather Summary

 TemperatureHumidityPressure
High91 °F (Jul 28, 2:53 PM)93% (Jul 26, 6:59 AM)30.11 "Hg (Jul 26, 6:59 AM)
Low50 °F (Jul 16, 5:53 AM)33% (Jul 27, 4:53 PM)29.47 "Hg (Jul 14, 4:53 AM)
Average74 °F66%29.89 "Hg
* Reported Jul 13 7:53 PM — Jul 28 7:53 PM, Flint, Weather by CustomWeather, © 2015

Note: Actual official high and low records may vary slightly from our data, if they occured in-between our weather recording intervals... More about our weather records

Advertising

Flint weather history for previous 24 hours

 ConditionsComfort  
Time TempWeatherWind HumidityBarometerVisibility
7:53 PM
Tue, Jul 28
87 °FPassing clouds.10 mph46%29.94 "Hg10 mi
6:53 PM86 °FSunny.5 mph46%29.95 "Hg10 mi
5:53 PM90 °FSunny.5 mph38%29.96 "Hg10 mi
4:53 PM90 °FSunny.6 mph37%29.98 "Hg10 mi
3:53 PM90 °FSunny.5 mph37%30.00 "Hg10 mi
2:53 PM91 °FSunny.5 mph37%30.00 "Hg10 mi
1:53 PM89 °FSunny.No wind38%30.01 "Hg10 mi
12:53 PM88 °FSunny.5 mph45%30.03 "Hg10 mi
11:53 AM87 °FSunny.7 mph45%30.02 "Hg10 mi
10:53 AM84 °FSunny.3 mph55%30.04 "Hg10 mi
9:53 AM82 °FSunny.No wind58%30.05 "Hg10 mi
8:53 AM77 °FSunny.No wind66%30.05 "Hg10 mi
7:53 AM70 °FSunny.3 mph81%30.04 "Hg9 mi
6:53 AM65 °FClear.No wind87%30.04 "Hg8 mi
5:53 AM66 °FClear.5 mph87%30.02 "Hg10 mi
4:53 AM67 °FClear.No wind87%30.02 "Hg10 mi
3:53 AM67 °FClear.No wind85%30.02 "Hg10 mi
2:53 AM68 °FClear.No wind82%30.02 "Hg10 mi
1:53 AM70 °FClear.No wind79%30.03 "Hg10 mi
12:53 AM68 °FClear.No wind82%30.03 "Hg10 mi
11:53 PM
Mon, Jul 27
70 °FClear.No wind81%30.03 "Hg10 mi
10:53 PM70 °FClear.6 mph81%30.02 "Hg10 mi
9:53 PM75 °FSunny.No wind69%30.01 "Hg8 mi
Weather by CustomWeather, © 2015

See weather overviewHow to use our weather pages